Content
SEND FEEDBACK

Daily
Averages
Monthly
Summary
Jamaica

MONTEGO BAY, JAMAICA


Home > Caribbean > Jamaica
Elevation: 10 feet     Latitude: 18 30N     Longitude: 077 55W

WEATHER
 
SELECT A DAY
Number of Records: 172,642;   Date Range: 7/1/96 - 11/21/14
 
SHARE

PRINT THIS DATA

[ ← Previous Day ]
WEATHER ALMANAC - MARCH 20, 2013
[ Next Day → ]
[ °C ]   °F
Weather ElementAverageHighLow
Temperature78.6 °F85 °F (10:00 am)73.4 °F (2:00 am)
Dewpoint70.3 °F73.4 °F (11:00 am)68 °F (2:00 am)
Humidity74.3 %83 % (1:00 am)55 % (10:00 am)
Barometer29.90 in29.96 in (10:00 am)29.86 in (3:00 am)
Wind Speed5.8 mph11.5 mph (1:00 pm)
Weather ElementAverage
Visibility7.7 mi
Wind DirectionSSE (143.7 °)

Weather ElementTotal
Precipitation---
Cooling Degree Days14.2 (Base 65)
Growing Degree Days29.2 (Base 50)
Averaged from 30 records on March 20, 2013
WEATHER CONDITIONS BREAKOUT
WIND DIRECTION BREAKOUT
WEATHER BY HOUR - MARCH 20, 2013
[ °C ]   °F
Local TimeTemperatureDewpointHumidityBarometerVisibilityWind DirectionWind SpeedGust SpeedPrecipitationEventsConditions
1:00 AM75.0 °F70.0 °F79 %29.91 in12.0 miSSE (160°)3.5 mphScattered Clouds
1:00 AM75.2 °F69.8 °F83 %29.89 in6.2 miSSE (160°)3.5 mphPartly Cloudy
2:00 AM73.4 °F68.0 °F83 %29.89 in6.2 miSSE (150°)1.2 mphPartly Cloudy
3:00 AM75.2 °F68.0 °F78 %29.86 in6.2 miSouth (170°)3.5 mphPartly Cloudy
4:00 AM74.0 °F68.0 °F76 %29.88 in12.0 miSSE (160°)4.6 mphScattered Clouds
4:00 AM75.2 °F68.0 °F78 %29.86 in6.2 miSSE (160°)4.6 mphPartly Cloudy
5:00 AM75.2 °F68.0 °F78 %29.86 in6.2 miSSE (150°)5.8 mphPartly Cloudy
6:00 AM75.2 °F68.0 °F78 %29.89 in6.2 miSSW (200°)2.3 mphPartly Cloudy
7:00 AM81.0 °F69.0 °F58 %29.94 in12.0 miSSE (160°)4.6 mphHaze
7:00 AM75.2 °F68.0 °F78 %29.92 in6.2 miSSE (160°)4.6 mphPartly Cloudy
8:00 AM80.6 °F69.8 °F70 %29.95 in6.2 miSouth (180°)3.5 mphPartly Cloudy
9:00 AM80.6 °F69.8 °F70 %29.95 in6.2 miWest (260°)5.8 mphPartly Cloudy
10:00 AM85.0 °F71.0 °F55 %29.96 in12.0 miNorth5.8 mphHaze
10:00 AM84.2 °F71.6 °F66 %29.95 in6.2 miNorth (360°)5.8 mphPartly Cloudy
11:00 AM82.4 °F73.4 °F74 %29.95 in6.2 miNNE (30°)9.2 mphPartly Cloudy
12:00 PM82.4 °F73.4 °F74 %29.92 in6.2 miNNE (20°)8.1 mphPartly Cloudy
1:00 PM83.0 °F72.0 °F63 %29.91 in16.0 miNE (50°)11.5 mph
1:00 PM82.4 °F71.6 °F70 %29.89 in6.2 miNE (50°)11.5 mphPartly Cloudy
2:00 PM82.4 °F73.4 °F74 %29.89 in6.2 miNE (40°)10.4 mphMostly Cloudy
3:00 PM80.6 °F71.6 °F74 %29.86 in6.2 miNE (50°)9.2 mphMostly Cloudy
4:00 PM80.6 °F71.6 °F74 %29.86 in6.2 miNE (40°)8.1 mphMostly Cloudy
5:00 PM80.6 °F71.6 °F74 %29.86 in6.2 miNE (50°)6.9 mphMostly Cloudy
6:00 PM78.8 °F71.6 °F78 %29.86 in6.2 miNE (40°)5.8 mphMostly Cloudy
7:00 PM77.0 °F71.6 °F83 %29.86 in6.2 miWest (270°)5.8 mphMostly Cloudy
7:00 PM78.0 °F71.0 °F73 %29.88 in12.0 miWest (270°)5.8 mphMostly Cloudy
8:00 PM77.0 °F69.8 °F78 %29.89 in6.2 miSW (220°)3.5 mphMostly Cloudy
9:00 PM77.0 °F69.8 °F78 %29.89 in6.2 miSouth (180°)3.5 mphMostly Cloudy
10:00 PM76.0 °F70.0 °F75 %29.90 in12.0 miSouth (180°)5.8 mphPartly Cloudy
10:00 PM77.0 °F69.8 °F78 %29.89 in6.2 miSouth (180°)5.8 mphScattered Clouds
11:00 PM77.0 °F69.8 °F78 %29.89 in6.2 miSSW (210°)3.5 mphScattered Clouds
Hourly data recorded from MKJS, located miles away from Montego Bay, Jamaica







STORIES FROM OUR PARTNERS